• In Uzbekistan
  • List of Countries
  • For 7 days
  • Water Temperature
  • Satellite Maps
  • Weather Map
  • Weather Widgets
  • user-avatar
    Login

    Hourly Weather Ashtarak

    Today, 26 March, Sunday

    Time Temperature Precipitation Wind Pressure Humidity
    00:00 0°C° 0 mm 1 mps 653 mmHg 78%
    01:00 0°C° 0 mm 1 mps 653 mmHg 77%
    02:00 -1°C° 0 mm 1 mps 653 mmHg 77%
    03:00 -2°C° 0 mm 1 mps 653 mmHg 78%
    04:00 -2°C° 0 mm 1 mps 653 mmHg 78%
    05:00 -2°C° 0 mm 1 mps 653 mmHg 78%
    06:00 -2°C° 0 mm 1 mps 653 mmHg 78%
    07:00 +1°C° 0 mm 1 mps 654 mmHg 75%
    08:00 +4°C° 0 mm 1 mps 655 mmHg 71%
    09:00 +7°C° 0 mm 1 mps 656 mmHg 67%
    10:00 +7°C° 0 mm 2 mps 656 mmHg 66%
    11:00 +8°C° 0 mm 2 mps 656 mmHg 64%
    12:00 +9°C° 0 mm 2 mps 655 mmHg 63%
    13:00 +9°C° 0 mm 2 mps 655 mmHg 62%
    14:00 +10°C° 0 mm 2 mps 655 mmHg 61%
    15:00 +10°C° 0 mm 2 mps 655 mmHg 60%
    16:00 +9°C° 0 mm 2 mps 655 mmHg 63%
    17:00 +7°C° 0 mm 2 mps 655 mmHg 66%
    18:00 +6°C° 0 mm 2 mps 655 mmHg 69%
    19:00 +6°C° 0 mm 1 mps 655 mmHg 70%
    20:00 +5°C° 0 mm 1 mps 655 mmHg 72%
    21:00 +4°C° 0 mm 1 mps 656 mmHg 74%
    22:00 +3°C° 0 mm 1 mps 656 mmHg 75%
    23:00 +3°C° 0 mm 1 mps 656 mmHg 75%

    Tomorrow, 27 March, Monday

    Time Temperature Precipitation Wind Pressure Humidity
    00:00 +3°C° 0 mm 1 mps 656 mmHg 75%
    01:00 +3°C° 0 mm 1 mps 656 mmHg 76%
    02:00 +3°C° 0 mm 1 mps 656 mmHg 76%
    03:00 +2°C° 0 mm 1 mps 656 mmHg 77%
    04:00 +2°C° 0 mm 1 mps 655 mmHg 77%
    05:00 +2°C° 0 mm 1 mps 655 mmHg 77%
    06:00 +1°C° 0 mm 2 mps 655 mmHg 78%
    07:00 +3°C° 0 mm 2 mps 655 mmHg 74%
    08:00 +4°C° 0 mm 3 mps 655 mmHg 71%
    09:00 +7°C° 0 mm 3 mps 655 mmHg 68%
    10:00 +8°C° 0 mm 3 mps 655 mmHg 66%
    11:00 +9°C° 0 mm 3 mps 655 mmHg 63%
    12:00 +10°C° 0 mm 4 mps 655 mmHg 61%
    13:00 +11°C° 0.1 mm 4 mps 654 mmHg 60%
    14:00 +11°C° 0.1 mm 4 mps 654 mmHg 59%
    15:00 +11°C° 0.1 mm 4 mps 654 mmHg 58%
    16:00 +10°C° 0.1 mm 4 mps 654 mmHg 62%
    17:00 +9°C° 0.1 mm 3 mps 654 mmHg 66%
    18:00 +8°C° 0.1 mm 2 mps 653 mmHg 70%
    19:00 +7°C° 0.1 mm 2 mps 654 mmHg 72%
    20:00 +6°C° 0.1 mm 2 mps 654 mmHg 73%
    21:00 +6°C° 0.1 mm 2 mps 654 mmHg 75%
    22:00 +5°C° 0.2 mm 2 mps 654 mmHg 76%
    23:00 +5°C° 0.2 mm 2 mps 654 mmHg 77%

    Day after tomorrow, 28 March, Tuesday

    Time Temperature Precipitation Wind Pressure Humidity
    00:00 +5°C° 0.2 mm 2 mps 654 mmHg 78%
    01:00 +5°C° 0.2 mm 2 mps 654 mmHg 79%
    02:00 +5°C° 0.2 mm 2 mps 654 mmHg 80%
    03:00 +4°C° 0.2 mm 2 mps 653 mmHg 81%
    04:00 +5°C° 0.2 mm 1 mps 654 mmHg 82%
    05:00 +5°C° 0.2 mm 1 mps 654 mmHg 83%
    06:00 +5°C° 0.2 mm 1 mps 654 mmHg 83%
    07:00 +6°C° 0.3 mm 1 mps 655 mmHg 79%
    08:00 +6°C° 0.3 mm 2 mps 655 mmHg 74%
    09:00 +7°C° 0.3 mm 2 mps 656 mmHg 70%
    10:00 +8°C° 0.4 mm 2 mps 656 mmHg 67%
    11:00 +9°C° 0.4 mm 2 mps 656 mmHg 65%
    12:00 +10°C° 0.4 mm 2 mps 656 mmHg 63%
    13:00 +10°C° 0.5 mm 2 mps 656 mmHg 64%
    14:00 +10°C° 0.5 mm 2 mps 656 mmHg 64%
    15:00 +10°C° 0.5 mm 2 mps 655 mmHg 65%
    16:00 +10°C° 0.4 mm 1 mps 655 mmHg 68%
    17:00 +9°C° 0.4 mm 1 mps 655 mmHg 71%
    18:00 +9°C° 0.4 mm 1 mps 655 mmHg 74%
    19:00 +8°C° 0.2 mm 1 mps 656 mmHg 75%
    20:00 +7°C° 0.2 mm 1 mps 656 mmHg 77%
    21:00 +6°C° 0.2 mm 1 mps 656 mmHg 79%
    22:00 +5°C° 0.1 mm 1 mps 656 mmHg 79%
    23:00 +5°C° 0.1 mm 1 mps 656 mmHg 79%

    29 March, Wednesday

    Time Temperature Precipitation Wind Pressure Humidity
    00:00 +4°C° 0.1 mm 1 mps 656 mmHg 79%
    01:00 +4°C° 0.1 mm 1 mps 656 mmHg 80%
    02:00 +4°C° 0.1 mm 1 mps 656 mmHg 81%
    03:00 +4°C° 0.1 mm 1 mps 656 mmHg 82%
    04:00 +4°C° 0.1 mm 1 mps 656 mmHg 82%
    05:00 +4°C° 0.1 mm 1 mps 656 mmHg 83%
    06:00 +4°C° 0.1 mm 1 mps 656 mmHg 84%
    07:00 +5°C° 0 mm 1 mps 656 mmHg 79%
    08:00 +7°C° 0 mm 1 mps 657 mmHg 74%
    09:00 +8°C° 0 mm 2 mps 657 mmHg 69%
    10:00 +9°C° 0.1 mm 2 mps 657 mmHg 66%
    11:00 +10°C° 0.1 mm 2 mps 657 mmHg 63%
    12:00 +12°C° 0.1 mm 2 mps 657 mmHg 59%
    13:00 +12°C° 0.1 mm 2 mps 657 mmHg 59%
    14:00 +13°C° 0.1 mm 2 mps 657 mmHg 58%
    15:00 +13°C° 0.1 mm 2 mps 657 mmHg 57%
    16:00 +10°C° 0 mm 2 mps 657 mmHg 62%
    17:00 +10°C° 0 mm 1 mps 657 mmHg 66%
    18:00 +8°C° 0 mm 1 mps 657 mmHg 71%
    19:00 +7°C° 0 mm 1 mps 657 mmHg 72%
    20:00 +6°C° 0 mm 1 mps 657 mmHg 73%
    21:00 +5°C° 0 mm 1 mps 658 mmHg 74%
    22:00 +4°C° 0 mm 1 mps 658 mmHg 74%
    23:00 +4°C° 0 mm 1 mps 658 mmHg 74%

    30 March, Thursday

    Time Temperature Precipitation Wind Pressure Humidity
    00:00 +4°C° 0 mm 1 mps 658 mmHg 74%
    01:00 +4°C° 0 mm 1 mps 658 mmHg 75%
    02:00 +3°C° 0 mm 0 mps 658 mmHg 76%
    03:00 +3°C° 0 mm 0 mps 658 mmHg 77%
    04:00 +2°C° 0 mm 0 mps 658 mmHg 78%
    05:00 +2°C° 0 mm 0 mps 658 mmHg 79%
    06:00 +2°C° 0 mm 0 mps 659 mmHg 80%
    07:00 +5°C° 0 mm 1 mps 659 mmHg 73%
    08:00 +7°C° 0 mm 1 mps 660 mmHg 66%
    09:00 +10°C° 0 mm 1 mps 660 mmHg 59%
    10:00 +10°C° 0 mm 2 mps 660 mmHg 57%
    11:00 +12°C° 0 mm 2 mps 660 mmHg 55%
    12:00 +13°C° 0 mm 2 mps 660 mmHg 53%
    13:00 +13°C° 0 mm 2 mps 659 mmHg 54%
    14:00 +13°C° 0 mm 2 mps 659 mmHg 54%
    15:00 +13°C° 0 mm 2 mps 659 mmHg 55%
    16:00 +12°C° 0 mm 2 mps 658 mmHg 60%
    17:00 +9°C° 0 mm 2 mps 658 mmHg 65%
    18:00 +8°C° 0 mm 2 mps 657 mmHg 70%
    19:00 +8°C° 0 mm 1 mps 657 mmHg 72%
    20:00 +7°C° 0 mm 1 mps 657 mmHg 74%
    21:00 +6°C° 0 mm 1 mps 657 mmHg 75%
    22:00 +6°C° 0 mm 1 mps 656 mmHg 75%
    23:00 +6°C° 0 mm 1 mps 656 mmHg 74%

    31 March, Friday

    Time Temperature Precipitation Wind Pressure Humidity
    00:00 +5°C° 0 mm 1 mps 656 mmHg 73%
    01:00 +6°C° 0.2 mm 1 mps 656 mmHg 73%
    02:00 +6°C° 0.2 mm 1 mps 655 mmHg 73%
    03:00 +6°C° 0.2 mm 1 mps 655 mmHg 74%
    04:00 +6°C° 0.3 mm 1 mps 655 mmHg 75%
    05:00 +6°C° 0.3 mm 1 mps 655 mmHg 76%
    06:00 +6°C° 0.3 mm 1 mps 655 mmHg 78%
    07:00 +7°C° 0 mm 2 mps 655 mmHg 73%
    08:00 +8°C° 0 mm 2 mps 655 mmHg 68%
    09:00 +10°C° 0 mm 2 mps 655 mmHg 64%
    10:00 +12°C° 0.1 mm 2 mps 655 mmHg 62%
    11:00 +13°C° 0.1 mm 2 mps 655 mmHg 60%
    12:00 +14°C° 0.1 mm 2 mps 655 mmHg 59%
    13:00 +13°C° 0.3 mm 2 mps 654 mmHg 60%
    14:00 +13°C° 0.3 mm 2 mps 654 mmHg 61%
    15:00 +13°C° 0.3 mm 2 mps 654 mmHg 62%
    16:00 +12°C° 0.5 mm 2 mps 653 mmHg 66%
    17:00 +10°C° 0.5 mm 2 mps 653 mmHg 70%
    18:00 +9°C° 0.5 mm 2 mps 653 mmHg 73%
    19:00 +9°C° 0.2 mm 2 mps 653 mmHg 75%
    20:00 +9°C° 0.2 mm 1 mps 653 mmHg 77%
    21:00 +8°C° 0.2 mm 1 mps 653 mmHg 79%
    22:00 +8°C° 0.2 mm 1 mps 652 mmHg 81%
    23:00 +7°C° 0.2 mm 1 mps 652 mmHg 82%
    Show more